• In Lithuania
  • List of Countries
  • For 7 days
  • Water Temperature
  • Satellite Maps
  • Weather Map
  • Weather Widgets
  • user-avatar
    Login

    Hourly Weather Naftalan

    Today, 22 October, Sunday

    Time Temperature Precipitation Wind Pressure Humidity
    00:00 +18°C° 0 mm 3 mps 763 mmHg 84%
    01:00 +18°C° 0 mm 3 mps 763 mmHg 84%
    02:00 +17°C° 0 mm 3 mps 763 mmHg 84%
    03:00 +17°C° 0 mm 3 mps 762 mmHg 83%
    04:00 +17°C° 0 mm 3 mps 762 mmHg 83%
    05:00 +17°C° 0 mm 2 mps 762 mmHg 82%
    06:00 +17°C° 0 mm 2 mps 762 mmHg 82%
    07:00 +18°C° 0 mm 2 mps 762 mmHg 77%
    08:00 +19°C° 0 mm 3 mps 762 mmHg 71%
    09:00 +21°C° 0 mm 3 mps 762 mmHg 66%
    10:00 +22°C° 0 mm 3 mps 761 mmHg 60%
    11:00 +24°C° 0 mm 3 mps 761 mmHg 55%
    12:00 +25°C° 0 mm 3 mps 761 mmHg 50%
    13:00 +25°C° 0 mm 3 mps 760 mmHg 49%
    14:00 +25°C° 0 mm 3 mps 760 mmHg 48%
    15:00 +25°C° 0 mm 3 mps 759 mmHg 47%
    16:00 +24°C° 0 mm 3 mps 759 mmHg 58%
    17:00 +21°C° 0 mm 3 mps 759 mmHg 68%
    18:00 +20°C° 0 mm 4 mps 759 mmHg 78%
    19:00 +20°C° 0 mm 3 mps 760 mmHg 80%
    20:00 +19°C° 0 mm 3 mps 760 mmHg 81%
    21:00 +19°C° 0 mm 3 mps 760 mmHg 83%
    22:00 +19°C° 0 mm 3 mps 760 mmHg 73%
    23:00 +18°C° 0 mm 4 mps 760 mmHg 63%

    Tomorrow, 23 October, Monday

    Time Temperature Precipitation Wind Pressure Humidity
    00:00 +18°C° 0 mm 4 mps 760 mmHg 53%
    01:00 +17°C° 0 mm 5 mps 760 mmHg 46%
    02:00 +17°C° 0 mm 6 mps 760 mmHg 39%
    03:00 +17°C° 0 mm 7 mps 760 mmHg 32%
    04:00 +16°C° 0 mm 7 mps 760 mmHg 32%
    05:00 +16°C° 0 mm 8 mps 761 mmHg 31%
    06:00 +16°C° 0 mm 8 mps 761 mmHg 31%
    07:00 +17°C° 0 mm 8 mps 762 mmHg 32%
    08:00 +20°C° 0 mm 7 mps 763 mmHg 32%
    09:00 +21°C° 0 mm 7 mps 764 mmHg 32%
    10:00 +22°C° 0 mm 7 mps 764 mmHg 35%
    11:00 +22°C° 0 mm 7 mps 765 mmHg 38%
    12:00 +23°C° 0 mm 7 mps 765 mmHg 40%
    13:00 +22°C° 0 mm 7 mps 765 mmHg 46%
    14:00 +22°C° 0 mm 7 mps 766 mmHg 52%
    15:00 +21°C° 0 mm 7 mps 766 mmHg 57%
    16:00 +20°C° 0 mm 7 mps 766 mmHg 62%
    17:00 +18°C° 0 mm 7 mps 767 mmHg 67%
    18:00 +17°C° 0 mm 6 mps 767 mmHg 72%
    19:00 +17°C° 0.1 mm 6 mps 768 mmHg 73%
    20:00 +17°C° 0.1 mm 6 mps 768 mmHg 74%
    21:00 +17°C° 0.1 mm 6 mps 768 mmHg 76%
    22:00 +17°C° 0.1 mm 6 mps 768 mmHg 76%
    23:00 +17°C° 0.1 mm 6 mps 768 mmHg 77%

    Day after tomorrow, 24 October, Tuesday

    Time Temperature Precipitation Wind Pressure Humidity
    00:00 +17°C° 0.1 mm 6 mps 768 mmHg 78%
    01:00 +17°C° 0.1 mm 6 mps 768 mmHg 78%
    02:00 +17°C° 0.1 mm 6 mps 767 mmHg 78%
    03:00 +17°C° 0.1 mm 6 mps 767 mmHg 79%
    04:00 +17°C° 0.1 mm 5 mps 767 mmHg 79%
    05:00 +17°C° 0.1 mm 5 mps 767 mmHg 80%
    06:00 +16°C° 0.1 mm 5 mps 767 mmHg 81%
    07:00 +18°C° 0.1 mm 4 mps 767 mmHg 80%
    08:00 +18°C° 0.1 mm 4 mps 767 mmHg 80%
    09:00 +19°C° 0.1 mm 4 mps 768 mmHg 79%
    10:00 +19°C° 0.1 mm 4 mps 767 mmHg 78%
    11:00 +19°C° 0.1 mm 3 mps 767 mmHg 77%
    12:00 +20°C° 0.1 mm 3 mps 766 mmHg 75%
    13:00 +20°C° 0 mm 3 mps 766 mmHg 75%
    14:00 +20°C° 0 mm 3 mps 766 mmHg 74%
    15:00 +20°C° 0 mm 2 mps 766 mmHg 74%
    16:00 +20°C° 0 mm 2 mps 766 mmHg 77%
    17:00 +19°C° 0 mm 2 mps 766 mmHg 80%
    18:00 +18°C° 0 mm 2 mps 766 mmHg 83%
    19:00 +18°C° 0 mm 2 mps 767 mmHg 85%
    20:00 +18°C° 0 mm 2 mps 767 mmHg 86%
    21:00 +18°C° 0 mm 1 mps 767 mmHg 88%
    22:00 +18°C° 0 mm 1 mps 767 mmHg 88%
    23:00 +18°C° 0 mm 1 mps 767 mmHg 88%

    25 October, Wednesday

    Time Temperature Precipitation Wind Pressure Humidity
    00:00 +18°C° 0 mm 1 mps 767 mmHg 88%
    01:00 +18°C° 0 mm 1 mps 767 mmHg 89%
    02:00 +18°C° 0 mm 1 mps 767 mmHg 90%
    03:00 +16°C° 0 mm 1 mps 767 mmHg 91%
    04:00 +16°C° 0 mm 1 mps 767 mmHg 91%
    05:00 +16°C° 0 mm 1 mps 767 mmHg 92%
    06:00 +16°C° 0 mm 1 mps 767 mmHg 92%
    07:00 +18°C° 0 mm 1 mps 767 mmHg 87%
    08:00 +19°C° 0 mm 1 mps 767 mmHg 83%
    09:00 +20°C° 0 mm 1 mps 767 mmHg 78%
    10:00 +21°C° 0 mm 1 mps 767 mmHg 74%
    11:00 +22°C° 0 mm 1 mps 766 mmHg 69%
    12:00 +22°C° 0 mm 1 mps 766 mmHg 65%
    13:00 +23°C° 0 mm 2 mps 766 mmHg 64%
    14:00 +23°C° 0 mm 2 mps 765 mmHg 62%
    15:00 +24°C° 0 mm 2 mps 765 mmHg 60%
    16:00 +21°C° 0 mm 3 mps 765 mmHg 67%
    17:00 +20°C° 0 mm 3 mps 765 mmHg 74%
    18:00 +19°C° 0 mm 3 mps 765 mmHg 81%
    19:00 +18°C° 0 mm 2 mps 765 mmHg 83%
    20:00 +18°C° 0 mm 2 mps 765 mmHg 85%
    21:00 +18°C° 0 mm 2 mps 765 mmHg 86%
    22:00 +17°C° 0 mm 2 mps 764 mmHg 87%
    23:00 +17°C° 0 mm 2 mps 764 mmHg 87%

    26 October, Thursday

    Time Temperature Precipitation Wind Pressure Humidity
    00:00 +17°C° 0 mm 2 mps 764 mmHg 87%
    01:00 +17°C° 0 mm 2 mps 763 mmHg 85%
    02:00 +17°C° 0 mm 2 mps 763 mmHg 84%
    03:00 +17°C° 0 mm 3 mps 763 mmHg 82%
    04:00 +17°C° 0 mm 3 mps 763 mmHg 77%
    05:00 +17°C° 0 mm 3 mps 762 mmHg 73%
    06:00 +17°C° 0 mm 3 mps 762 mmHg 68%
    07:00 +19°C° 0 mm 3 mps 762 mmHg 57%
    08:00 +21°C° 0 mm 4 mps 762 mmHg 47%
    09:00 +23°C° 0 mm 4 mps 762 mmHg 36%
    10:00 +25°C° 0 mm 4 mps 762 mmHg 32%
    11:00 +27°C° 0 mm 4 mps 761 mmHg 27%
    12:00 +28°C° 0 mm 5 mps 761 mmHg 23%
    13:00 +29°C° 0 mm 5 mps 761 mmHg 23%
    14:00 +29°C° 0 mm 5 mps 761 mmHg 23%
    15:00 +29°C° 0 mm 6 mps 761 mmHg 23%
    16:00 +26°C° 0 mm 8 mps 762 mmHg 36%
    17:00 +22°C° 0 mm 10 mps 763 mmHg 49%
    18:00 +18°C° 0 mm 11 mps 763 mmHg 62%
    19:00 +18°C° 0 mm 11 mps 764 mmHg 64%
    20:00 +17°C° 0 mm 10 mps 765 mmHg 66%
    21:00 +16°C° 0 mm 9 mps 766 mmHg 67%
    22:00 +16°C° 0 mm 9 mps 766 mmHg 67%
    23:00 +16°C° 0 mm 8 mps 766 mmHg 67%

    27 October, Friday

    Time Temperature Precipitation Wind Pressure Humidity
    00:00 +15°C° 0 mm 7 mps 766 mmHg 66%
    01:00 +15°C° 0 mm 6 mps 766 mmHg 67%
    02:00 +15°C° 0 mm 6 mps 765 mmHg 68%
    03:00 +15°C° 0 mm 5 mps 765 mmHg 69%
    04:00 +15°C° 0 mm 5 mps 765 mmHg 69%
    05:00 +15°C° 0 mm 5 mps 765 mmHg 70%
    06:00 +15°C° 0 mm 5 mps 765 mmHg 71%
    07:00 +15°C° 0 mm 5 mps 765 mmHg 69%
    08:00 +16°C° 0 mm 5 mps 765 mmHg 67%
    09:00 +16°C° 0 mm 5 mps 766 mmHg 65%
    10:00 +16°C° 0 mm 6 mps 766 mmHg 65%
    11:00 +16°C° 0 mm 6 mps 766 mmHg 65%
    12:00 +16°C° 0 mm 7 mps 766 mmHg 65%
    13:00 +16°C° 0 mm 6 mps 766 mmHg 65%
    14:00 +16°C° 0 mm 6 mps 766 mmHg 64%
    15:00 +16°C° 0 mm 5 mps 766 mmHg 64%
    16:00 +15°C° 0 mm 5 mps 766 mmHg 67%
    17:00 +15°C° 0 mm 4 mps 766 mmHg 70%
    18:00 +14°C° 0 mm 3 mps 767 mmHg 73%
    19:00 +14°C° 0 mm 3 mps 767 mmHg 75%
    20:00 +14°C° 0 mm 3 mps 767 mmHg 77%
    21:00 +14°C° 0 mm 3 mps 767 mmHg 79%
    22:00 +15°C° 0 mm 2 mps 767 mmHg 81%
    23:00 +15°C° 0 mm 2 mps 766 mmHg 83%
    Show more